Weather History for Gulf Shores, AL

Change the Weather History Date:

Saturday, June 22, 2013

  Actual Average (KPNS) Record (KPNS)
Temperature  
Mean Temperature 78 °F 81 °F  
Max Temperature 86 °F 89 °F 101 °F (2009)
Min Temperature 71 °F 74 °F 64 °F (1976)
Cooling Degree Days 14 16  
Month to date cooling degree days 330  
Year to date cooling degree days 778  
Since 1 June cooling degree days 330  
Growing Degree Days 28 (Base 50)    
Moisture  
Dew Point 69 °F    
Average Humidity 74    
Maximum Humidity 94    
Minimum Humidity 55    
Precipitation  
Precipitation 0.00 in 0.25 in 3.02 in (1978)
Month to date precipitation 4.61  
Year to date precipitation 28.61  
Sea Level Pressure  
Sea Level Pressure 30.08 in    
Wind  
Wind Speed 4 mph (East)    
Max Wind Speed 13 mph    
Max Gust Speed 17 mph    
Visibility 10 miles    
Events      
T = Trace of Precipitation, MM = Missing Value Source: NWS Daily Summary

Daily Weather History Graph

Daily Weather History Graph

Search for Another Location

Airport:

Trip Planner

Search our weather history database for the weather conditions in past years. The results will help you decide how hot, cold, wet, or windy it might be!

Date:

Astronomy

Jun. 22, 2013 Rise Set
Actual Time 5:49 AM CDT 7:55 PM CDT
Civil Twilight 5:22 AM CDT 8:23 PM CDT
Nautical Twilight 4:48 AM CDT 8:56 PM CDT
Astronomical Twilight 4:12 AM CDT 9:32 PM CDT
Moon 7:14 PM CDT (6/22) 4:57 AM CDT (6/22)
Length of Visible Light 15h 01m
Length of Day
14h 06m
Waxing Gibbous, 99% of the Moon is Illuminated
Jun 22
Waxing Gibbous
Jun 23
Full
Jun 29
Last Quarter
Jul 8
New
Jul 15
First Quarter

Hourly Weather History & Observations

Time (CDT) Temp. Heat Index Dew Point Humidity Pressure Visibility Wind Dir Wind Speed Gust Speed Precip Events Conditions
12:15 AM 73.4 °F - 68.0 °F 83% 30.09 in 10.0 mi Calm Calm - N/A   Clear
12:35 AM 73.4 °F - 68.0 °F 83% 30.08 in 10.0 mi North 3.5 mph - N/A   Clear
12:55 AM 71.6 °F - 68.0 °F 88% 30.08 in 10.0 mi Calm Calm - N/A   Clear
1:15 AM 73.4 °F - 68.0 °F 83% 30.08 in 10.0 mi Calm Calm - N/A   Clear
1:35 AM 71.6 °F - 68.0 °F 88% 30.07 in 10.0 mi NNE 3.5 mph - N/A   Clear
1:55 AM 71.6 °F - 68.0 °F 88% 30.07 in 10.0 mi Calm Calm - N/A   Clear
2:15 AM 71.6 °F - 68.0 °F 88% 30.06 in 10.0 mi NNE 3.5 mph - N/A   Clear
2:35 AM 71.6 °F - 68.0 °F 88% 30.06 in 10.0 mi NNE 3.5 mph - N/A   Clear
2:55 AM 71.6 °F - 68.0 °F 88% 30.06 in 10.0 mi Calm Calm - N/A   Clear
3:15 AM 71.6 °F - 68.0 °F 88% 30.06 in 10.0 mi Calm Calm - N/A   Clear
3:35 AM 71.6 °F - 68.0 °F 88% 30.05 in 10.0 mi Calm Calm - N/A   Clear
3:55 AM 71.6 °F - 68.0 °F 88% 30.05 in 10.0 mi Calm Calm - N/A   Clear
4:15 AM 71.6 °F - 68.0 °F 88% 30.06 in 10.0 mi Calm Calm - N/A   Clear
4:35 AM 71.6 °F - 68.0 °F 88% 30.06 in 10.0 mi North 3.5 mph - N/A   Clear
4:55 AM 71.6 °F - 68.0 °F 88% 30.07 in 10.0 mi NNE 4.6 mph - N/A   Clear
5:15 AM 71.6 °F - 68.0 °F 88% 30.07 in 10.0 mi North 4.6 mph - N/A   Clear
5:35 AM 71.6 °F - 68.0 °F 88% 30.08 in 10.0 mi NNE 4.6 mph - N/A   Clear
5:55 AM 71.6 °F - 69.8 °F 94% 30.08 in 7.0 mi NE 6.9 mph - N/A   Clear
6:15 AM 71.6 °F - 69.8 °F 94% 30.08 in 7.0 mi NE 3.5 mph - N/A   Clear
6:35 AM 73.4 °F - 69.8 °F 88% 30.09 in 10.0 mi NNE 4.6 mph - N/A   Clear
6:55 AM 75.2 °F - 69.8 °F 83% 30.10 in 10.0 mi NNE 4.6 mph - N/A   Clear
7:15 AM 77.0 °F - 71.6 °F 83% 30.09 in 10.0 mi NE 5.8 mph - N/A   Clear
7:35 AM 78.8 °F - 71.6 °F 78% 30.10 in 10.0 mi ENE 5.8 mph - N/A   Clear
7:55 AM 78.8 °F - 71.6 °F 78% 30.10 in 10.0 mi ENE 8.1 mph - N/A   Clear
8:15 AM 80.6 °F 83.9 °F 69.8 °F 70% 30.11 in 10.0 mi ENE 8.1 mph - N/A   Clear
8:35 AM 80.6 °F 83.9 °F 69.8 °F 70% 30.11 in 10.0 mi ENE 8.1 mph - N/A   Clear
8:55 AM 80.6 °F 83.9 °F 69.8 °F 70% 30.10 in 10.0 mi East 9.2 mph - N/A   Clear
9:15 AM 82.4 °F 86.3 °F 69.8 °F 66% 30.11 in 10.0 mi ENE 8.1 mph - N/A   Clear
9:35 AM 82.4 °F 86.3 °F 69.8 °F 66% 30.11 in 10.0 mi ENE 10.4 mph - N/A   Scattered Clouds
9:55 AM 82.4 °F 86.3 °F 69.8 °F 66% 30.12 in 10.0 mi ENE 9.2 mph - N/A   Clear
10:15 AM 84.2 °F 88.4 °F 69.8 °F 62% 30.12 in 10.0 mi East 8.1 mph - N/A   Clear
10:35 AM 84.2 °F 88.4 °F 69.8 °F 62% 30.12 in 10.0 mi ENE 9.2 mph - N/A   Clear
10:55 AM 84.2 °F 88.4 °F 69.8 °F 62% 30.12 in 10.0 mi ENE 9.2 mph - N/A   Scattered Clouds
11:15 AM 86.0 °F 91.8 °F 71.6 °F 62% 30.12 in 10.0 mi East 10.4 mph - N/A   Scattered Clouds
11:35 AM 84.2 °F 88.4 °F 69.8 °F 62% 30.12 in 10.0 mi East 10.4 mph - N/A   Mostly Cloudy
11:55 AM 86.0 °F 89.4 °F 68.0 °F 55% 30.12 in 10.0 mi East 10.4 mph 17.3 mph N/A   Scattered Clouds
12:15 PM 86.0 °F 89.4 °F 68.0 °F 55% 30.12 in 10.0 mi East 10.4 mph - N/A   Clear
12:35 PM 86.0 °F 89.4 °F 68.0 °F 55% 30.12 in 10.0 mi East 9.2 mph - N/A   Clear
12:55 PM 86.0 °F 89.4 °F 68.0 °F 55% 30.12 in 10.0 mi ENE 9.2 mph - N/A   Clear
1:15 PM 86.0 °F 89.4 °F 68.0 °F 55% 30.12 in 10.0 mi ESE 8.1 mph - N/A   Clear
1:35 PM 86.0 °F 89.4 °F 68.0 °F 55% 30.11 in 10.0 mi ESE 11.5 mph - N/A   Clear
1:55 PM 86.0 °F 89.4 °F 68.0 °F 55% 30.10 in 10.0 mi East 12.7 mph - N/A   Clear
2:15 PM 86.0 °F 90.4 °F 69.8 °F 58% 30.10 in 10.0 mi East 11.5 mph - N/A   Scattered Clouds
2:35 PM 86.0 °F 90.4 °F 69.8 °F 58% 30.10 in 10.0 mi SE 9.2 mph 17.3 mph N/A   Scattered Clouds
2:55 PM 86.0 °F 90.4 °F 69.8 °F 58% 30.09 in 10.0 mi SE 12.7 mph - N/A   Scattered Clouds
3:15 PM 86.0 °F 90.4 °F 69.8 °F 58% 30.08 in 10.0 mi ESE 11.5 mph - N/A   Clear
3:35 PM 86.0 °F 90.4 °F 69.8 °F 58% 30.07 in 10.0 mi SE 12.7 mph - N/A   Clear
3:55 PM 84.2 °F 88.4 °F 69.8 °F 62% 30.06 in 10.0 mi ESE 12.7 mph - N/A   Clear
4:15 PM 82.4 °F 86.3 °F 69.8 °F 66% 30.06 in 10.0 mi ESE 10.4 mph - N/A   Clear
4:35 PM 84.2 °F 88.4 °F 69.8 °F 62% 30.06 in 10.0 mi ESE 10.4 mph - N/A   Clear
4:55 PM 84.2 °F 88.4 °F 69.8 °F 62% 30.05 in 10.0 mi North - - N/A   Scattered Clouds
5:15 PM 84.2 °F 88.4 °F 69.8 °F 62% 30.05 in 10.0 mi SE 11.5 mph - N/A   Scattered Clouds
5:35 PM 82.4 °F 86.3 °F 69.8 °F 66% 30.04 in 10.0 mi SSE 9.2 mph - N/A   Scattered Clouds
5:55 PM 82.4 °F 86.3 °F 69.8 °F 66% 30.04 in 10.0 mi ESE 6.9 mph - N/A   Clear
6:15 PM 82.4 °F 86.3 °F 69.8 °F 66% 30.03 in 10.0 mi ESE 6.9 mph - N/A   Clear
6:35 PM 82.4 °F 86.3 °F 69.8 °F 66% 30.03 in 10.0 mi SE 5.8 mph - N/A   Clear
6:55 PM 80.6 °F 83.9 °F 69.8 °F 70% 30.03 in 10.0 mi SE 4.6 mph - N/A   Clear
7:15 PM 80.6 °F 83.9 °F 69.8 °F 70% 30.03 in 10.0 mi Calm Calm - N/A   Clear
7:35 PM 80.6 °F 83.9 °F 69.8 °F 70% 30.02 in 10.0 mi SE 3.5 mph - N/A   Clear
7:55 PM 78.8 °F - 69.8 °F 74% 30.02 in 10.0 mi Calm Calm - N/A   Clear
8:15 PM 77.0 °F - 69.8 °F 78% 30.02 in 10.0 mi East 4.6 mph - N/A   Clear
8:35 PM 75.2 °F - 69.8 °F 83% 30.02 in 10.0 mi Calm Calm - N/A   Clear
8:55 PM 77.0 °F - 69.8 °F 78% 30.03 in 10.0 mi Calm Calm - N/A   Clear
9:15 PM 77.0 °F - 69.8 °F 78% 30.03 in 10.0 mi East 3.5 mph - N/A   Clear
9:35 PM 73.4 °F - 69.8 °F 88% 30.04 in 10.0 mi Calm Calm - N/A   Clear
9:55 PM 75.2 °F - 69.8 °F 83% 30.05 in 10.0 mi Calm Calm - N/A   Clear
10:15 PM 75.2 °F - 69.8 °F 83% 30.06 in 10.0 mi Calm Calm - N/A   Clear
10:35 PM 75.2 °F - 69.8 °F 83% 30.07 in 10.0 mi Calm Calm - N/A   Clear
10:55 PM 75.2 °F - 69.8 °F 83% 30.07 in 10.0 mi Calm Calm - N/A   Clear
11:15 PM 73.4 °F - 69.8 °F 88% 30.08 in 10.0 mi Calm Calm - N/A   Clear
11:35 PM 73.4 °F - 69.8 °F 88% 30.08 in 10.0 mi Calm Calm - N/A   Scattered Clouds
11:55 PM 73.4 °F - 69.8 °F 88% 30.07 in 10.0 mi Calm Calm - N/A   Mostly Cloudy